Wendover, UT

6:24 AM MST on December 16, 2017 (GMT -0700)
Wendover

Weather History for KENV - January, 2014

Change the Weather History Date:

Saturday, January 4, 2014

  Actual Average Record
Temperature  
Mean Temperature 32 °F -  
Max Temperature 37 °F 29 °F 52 °F (1951)
Min Temperature 26 °F 15 °F -13 °F (1942)
Degree Days  
Heating Degree Days 34    
Moisture  
Dew Point 10 °F    
Average Humidity 42    
Maximum Humidity 80    
Minimum Humidity 28    
Precipitation  
Precipitation 0.00 in - - ()
Sea Level Pressure  
Sea Level Pressure 30.13 in    
Wind  
Wind Speed 12 mph (NNW)    
Max Wind Speed 26 mph    
Max Gust Speed 33 mph    
Visibility 10 miles    
Events      
Averages and records for this station are not official NWS values.
T = Trace of Precipitation, MM = Missing Value Source: NWS Daily Summary

Daily Weather History Graph

Daily Weather History Graph

Search for Another Location

Airport or City:

Trip Planner

Search our weather history database for the weather conditions in past years. The results will help you decide how hot, cold, wet, or windy it might be!

Date:

Astronomy

Jan. 04, 2014 Rise Set
Actual Time 8:00 AM MST 5:22 PM MST
Civil Twilight 7:29 AM MST 5:52 PM MST
Nautical Twilight 6:55 AM MST 6:27 PM MST
Astronomical Twilight 6:22 AM MST 7:00 PM MST
Moon 10:07 AM MST (1/4) 9:48 PM MST (1/4)
Length of Visible Light 10h 23m
Length of Day
9h 21m
Waxing Crescent, 16% of the Moon is Illuminated
Jan 4
Waxing Crescent
Jan 7
First Quarter
Jan 15
Full
Jan 23
Last Quarter
Jan 30
New

Hourly Weather History & Observations

Time (MST) Temp. Windchill Dew Point Humidity Pressure Visibility Wind Dir Wind Speed Gust Speed Precip Events Conditions
12:15 AM 30.2 °F 22.6 °F 24.8 °F 80% 29.93 in 10.0 mi NW 8.1 mph - N/A   Overcast
12:35 AM 30.2 °F 18.1 °F 19.4 °F 64% 29.93 in 10.0 mi NNE 18.4 mph - N/A   Mostly Cloudy
12:55 AM 26.6 °F 16.8 °F 15.8 °F 64% 29.93 in 10.0 mi SSW 10.4 mph - N/A   Mostly Cloudy
1:15 AM 33.8 °F 28.6 °F 21.2 °F 60% 29.93 in 10.0 mi WSW 5.8 mph - N/A   Overcast
1:35 AM 33.8 °F 24.8 °F 17.6 °F 52% 29.92 in 10.0 mi South 12.7 mph - N/A   Mostly Cloudy
1:55 AM 33.8 °F 28.6 °F 17.6 °F 52% 29.93 in 10.0 mi East 5.8 mph 18.4 mph N/A   Partly Cloudy
2:15 AM 33.8 °F 25.3 °F 15.8 °F 48% 29.95 in 10.0 mi ESE 11.5 mph - N/A   Mostly Cloudy
2:35 AM 33.8 °F 27.0 °F 15.8 °F 48% 29.97 in 10.0 mi NE 8.1 mph - N/A   Overcast
2:55 AM 35.6 °F 30.7 °F 14.0 °F 41% 29.99 in 10.0 mi North 5.8 mph - N/A   Overcast
3:15 AM 35.6 °F 30.7 °F 12.2 °F 38% 29.99 in 10.0 mi NNE 5.8 mph - N/A   Overcast
3:35 AM 33.8 °F 25.8 °F 12.2 °F 41% 30.00 in 10.0 mi NNW 10.4 mph - N/A   Overcast
3:55 AM 33.8 °F 27.7 °F 10.4 °F 38% 30.01 in 10.0 mi NNE 6.9 mph - N/A   Overcast
4:15 AM 32.0 °F 23.6 °F 10.4 °F 41% 30.02 in 10.0 mi North 10.4 mph 16.1 mph N/A   Overcast
4:35 AM 32.0 °F 23.6 °F 10.4 °F 41% 30.04 in 10.0 mi North 10.4 mph 20.7 mph N/A   Mostly Cloudy
4:55 AM 30.2 °F 21.3 °F 8.6 °F 40% 30.04 in 10.0 mi North 10.4 mph 20.7 mph N/A   Partly Cloudy
5:15 AM 30.2 °F 19.3 °F 8.6 °F 40% 30.05 in 10.0 mi North 15.0 mph 18.4 mph N/A   Clear
5:35 AM 30.2 °F 19.3 °F 6.8 °F 37% 30.05 in 10.0 mi North 15.0 mph - N/A   Clear
5:55 AM 30.2 °F 20.2 °F 6.8 °F 37% 30.06 in 10.0 mi NW 12.7 mph 17.3 mph N/A   Clear
6:15 AM 28.4 °F 15.4 °F 6.8 °F 40% 30.06 in 10.0 mi NNW 19.6 mph 26.5 mph N/A   Clear
6:35 AM 28.4 °F 16.2 °F 6.8 °F 40% 30.08 in 10.0 mi NW 17.3 mph 23.0 mph N/A   Clear
6:55 AM 28.4 °F 18.5 °F 6.8 °F 40% 30.10 in 10.0 mi North 11.5 mph 20.7 mph N/A   Clear
7:15 AM 26.6 °F 15.7 °F 5.0 °F 40% 30.10 in 10.0 mi NNW 12.7 mph - N/A   Clear
7:35 AM 28.4 °F 14.1 °F 5.0 °F 37% 30.10 in 10.0 mi NNW 24.2 mph 28.8 mph N/A   Clear
7:55 AM 28.4 °F 13.5 °F 5.0 °F 37% 30.10 in 10.0 mi NNW 26.5 mph 33.4 mph N/A   Clear
8:15 AM 28.4 °F 14.1 °F 5.0 °F 37% 30.11 in 10.0 mi NW 24.2 mph 29.9 mph N/A   Clear
8:35 AM 28.4 °F 14.4 °F 5.0 °F 37% 30.12 in 10.0 mi NNW 23.0 mph 28.8 mph N/A   Clear
8:55 AM 30.2 °F 17.1 °F 5.0 °F 34% 30.13 in 10.0 mi NNW 21.9 mph 32.2 mph N/A   Clear
9:15 AM 28.4 °F 24.6 °F 6.8 °F 40% 30.15 in 10.0 mi SSE 3.5 mph - N/A   Clear
9:35 AM 30.2 °F 24.3 °F 8.6 °F 40% 30.15 in 10.0 mi SE 5.8 mph - N/A   Clear
9:55 AM 30.2 °F 21.3 °F 8.6 °F 40% 30.15 in 10.0 mi East 10.4 mph - N/A   Clear
10:15 AM 32.0 °F 26.4 °F 8.6 °F 38% 30.16 in 10.0 mi WSW 5.8 mph - N/A   Clear
10:35 AM 33.8 °F 27.0 °F 8.6 °F 35% 30.16 in 10.0 mi NNW 8.1 mph - N/A   Clear
10:55 AM 33.8 °F 21.9 °F 8.6 °F 35% 30.17 in 10.0 mi NW 21.9 mph 26.5 mph N/A   Clear
11:15 AM 33.8 °F 23.2 °F 8.6 °F 35% 30.18 in 10.0 mi WNW 17.3 mph - N/A   Clear
11:35 AM 33.8 °F 24.3 °F 8.6 °F 35% 30.18 in 10.0 mi NW 13.8 mph - N/A   Clear
11:55 AM 35.6 °F 29.2 °F 10.4 °F 35% 30.17 in 10.0 mi NNW 8.1 mph 20.7 mph N/A   Clear
12:15 PM 35.6 °F 28.6 °F 8.6 °F 33% 30.16 in 10.0 mi SE 9.2 mph - N/A   Clear
12:35 PM 35.6 °F - 8.6 °F 33% 30.17 in 10.0 mi Calm Calm - N/A   Clear
12:55 PM 35.6 °F 32.8 °F 8.6 °F 33% 30.16 in 10.0 mi SE 3.5 mph - N/A   Clear
1:15 PM 37.4 °F 29.8 °F 6.8 °F 28% 30.16 in 10.0 mi North 11.5 mph - N/A   Clear
1:35 PM 37.4 °F 28.2 °F 10.4 °F 33% 30.16 in 10.0 mi NW 16.1 mph - N/A   Clear
1:55 PM 35.6 °F 27.5 °F 10.4 °F 35% 30.16 in 10.0 mi SE 11.5 mph 17.3 mph N/A   Clear
2:15 PM 33.8 °F 23.9 °F 15.8 °F 48% 30.15 in 10.0 mi SSE 15.0 mph - N/A   Clear
2:35 PM 33.8 °F 23.9 °F 14.0 °F 44% 30.16 in 10.0 mi South 15.0 mph - N/A   Clear
2:55 PM 30.2 °F 19.3 °F 15.8 °F 55% 30.17 in 10.0 mi SSE 15.0 mph - N/A   Clear
3:15 PM 30.2 °F 19.8 °F 14.0 °F 51% 30.18 in 10.0 mi SSE 13.8 mph - N/A   Clear
3:35 PM 32.0 °F 25.6 °F 15.8 °F 51% 30.19 in 10.0 mi South 6.9 mph - N/A   Clear
3:55 PM 30.2 °F 22.6 °F 14.0 °F 51% 30.19 in 10.0 mi South 8.1 mph - N/A   Clear
4:15 PM 30.2 °F 19.8 °F 14.0 °F 51% 30.19 in 10.0 mi SSE 13.8 mph - N/A   Clear
4:35 PM 30.2 °F 23.4 °F 12.2 °F 47% 30.19 in 10.0 mi South 6.9 mph - N/A   Clear
4:55 PM 28.4 °F 19.1 °F 14.0 °F 55% 30.19 in 10.0 mi South 10.4 mph - N/A   Clear
5:15 PM 26.6 °F 14.7 °F 12.2 °F 55% 30.19 in 10.0 mi South 15.0 mph - N/A   Clear
5:35 PM 26.6 °F 20.0 °F 14.0 °F 59% 30.20 in 10.0 mi West 5.8 mph - N/A   Clear
5:55 PM 26.6 °F 20.0 °F 10.4 °F 51% 30.19 in 10.0 mi South 5.8 mph - N/A   Clear
6:15 PM 32.0 °F 22.1 °F 8.6 °F 38% 30.20 in 10.0 mi NNW 13.8 mph 17.3 mph N/A   Clear
6:35 PM 32.0 °F 20.8 °F 6.8 °F 35% 30.20 in 10.0 mi NW 17.3 mph 27.6 mph N/A   Clear
6:55 PM 32.0 °F 19.5 °F 6.8 °F 35% 30.20 in 10.0 mi NNW 21.9 mph - N/A   Clear
7:15 PM 32.0 °F 20.1 °F 6.8 °F 35% 30.20 in 10.0 mi NNW 19.6 mph 29.9 mph N/A   Clear
7:35 PM 30.2 °F 18.9 °F 6.8 °F 37% 30.21 in 10.0 mi NNW 16.1 mph 23.0 mph N/A   Clear
7:55 PM 30.2 °F 19.8 °F 6.8 °F 37% 30.21 in 10.0 mi NW 13.8 mph 21.9 mph N/A   Clear
8:15 PM 30.2 °F 20.2 °F 6.8 °F 37% 30.22 in 10.0 mi WNW 12.7 mph - N/A   Clear
8:35 PM 28.4 °F 17.0 °F 6.8 °F 40% 30.22 in 10.0 mi WNW 15.0 mph 21.9 mph N/A   Clear
8:55 PM 28.4 °F 16.2 °F 6.8 °F 40% 30.22 in 10.0 mi NNW 17.3 mph - N/A   Clear
9:15 PM 30.2 °F 17.8 °F 6.8 °F 37% 30.23 in 10.0 mi NW 19.6 mph 25.3 mph N/A   Clear
9:35 PM 30.2 °F 19.8 °F 6.8 °F 37% 30.23 in 10.0 mi NW 13.8 mph 24.2 mph N/A   Clear
9:55 PM 30.2 °F 18.9 °F 5.0 °F 34% 30.23 in 10.0 mi NNW 16.1 mph 26.5 mph N/A   Clear
10:15 PM 30.2 °F 16.8 °F 5.0 °F 34% 30.23 in 10.0 mi NNW 23.0 mph 26.5 mph N/A   Clear
10:35 PM 30.2 °F 20.2 °F 5.0 °F 34% 30.25 in 10.0 mi NNW 12.7 mph 23.0 mph N/A   Clear
10:55 PM 28.4 °F 20.4 °F 5.0 °F 37% 30.25 in 10.0 mi NNW 8.1 mph - N/A   Clear
11:15 PM 28.4 °F 18.5 °F 5.0 °F 37% 30.25 in 10.0 mi NNW 11.5 mph - N/A   Clear
11:35 PM 28.4 °F 16.6 °F 3.2 °F 34% 30.25 in 10.0 mi WNW 16.1 mph - N/A   Clear
11:55 PM 30.2 °F 22.6 °F 5.0 °F 34% 30.25 in 10.0 mi NW 8.1 mph 21.9 mph N/A   Clear